Location: Newark
(33.6333°S, 78.8500°W)
Time: 03:46:40
(UTC+00:00)

Courier 1B - Pass Details

Date: 30 September 2019
Orbit: 962 x 1209 km, 28.3° (Epoch: 15 October)

Event Time Altitude Azimuth Distance (km) Brightness Sun altitude
Rises 00:44:53 0° 270° (W) 4,074 12.1 -18.9°
Reaches altitude 10° 00:48:16 10° 281° (WNW) 3,079 11.0 -19.6°
Maximum altitude 00:54:20 26° 334° (NNW) 2,047 9.2 -20.8°
Enters shadow 00:58:21 17° 17° (NNE) 2,497 9.3 -21.6°
Drops below altitude 10° 01:00:08 10° 28° (NNE) 2,926 - -21.9°
Sets 01:03:16 0° 40° (NE) 3,835 - -22.5°
